Weather History for Rolla, MO

Change the Weather History Date:

Friday, November 22, 2013

  Actual Average Record
Temperature  
Mean Temperature 40 °F 42 °F  
Max Temperature 49 °F 52 °F 73 °F (2010)
Min Temperature 31 °F 32 °F 9 °F (1898)
Degree Days  
Heating Degree Days 25 23  
Month to date heating degree days 413 398  
Since 1 July heating degree days 774 748  
Cooling Degree Days 0 0  
Month to date cooling degree days 0 0  
Year to date cooling degree days 1125 1243  
Moisture  
Dew Point 33 °F    
Average Humidity 93    
Maximum Humidity 100    
Minimum Humidity 85    
Precipitation  
Precipitation 0.02 in 0.14 in 1.46 in (1963)
Month to date precipitation 1.67 2.83  
Year to date precipitation 39.75 39.93  
Sea Level Pressure  
Sea Level Pressure 30.42 in    
Wind  
Wind Speed 12 mph (NNW)    
Max Wind Speed 22 mph    
Max Gust Speed 28 mph    
Visibility 6 miles    
Events Rain    
T = Trace of Precipitation, MM = Missing Value Source: NWS Daily Summary

Daily Weather History Graph

Daily Weather History Graph

Search for Another Location

Airport:

Trip Planner

Search our weather history database for the weather conditions in past years. The results will help you decide how hot, cold, wet, or windy it might be!

Date:

Astronomy

Nov. 22, 2013 Rise Set
Actual Time 6:55 AM CST 4:50 PM CST
Civil Twilight 6:27 AM CST 5:19 PM CST
Nautical Twilight 5:54 AM CST 5:51 PM CST
Astronomical Twilight 5:23 AM CST 6:22 PM CST
Moon 9:21 PM CST (11/22) 10:40 AM CST (11/22)
Length of Visible Light 10h 51m
Length of Day
9h 54m
Waning Gibbous, 78% of the Moon is Illuminated
Nov 22
Waning Gibbous
Nov 25
Last Quarter
Dec 2
New
Dec 9
First Quarter
Dec 17
Full

Hourly Weather History & Observations

Time (CST) Temp. Windchill Dew Point Humidity Pressure Visibility Wind Dir Wind Speed Gust Speed Precip Events Conditions
12:03 AM 48.9 °F - 48.0 °F 97% 30.21 in 1.0 mi NNW 6.9 mph - N/A   Mist
12:39 AM 46.9 °F - 46.9 °F 100% 30.22 in 2.0 mi NNW 17.3 mph - 0.00 in Rain Light Rain
12:53 AM 46.0 °F 39.9 °F 46.0 °F 100% 30.23 in 2.0 mi NNW 13.8 mph - 0.01 in Rain Light Rain
1:53 AM 42.1 °F 34.9 °F 41.0 °F 96% 30.27 in 2.5 mi NNW 13.8 mph - 0.00 in   Overcast
2:06 AM 42.1 °F 35.2 °F 42.1 °F 100% 30.25 in 1.5 mi NNW 12.7 mph - N/A   Overcast
2:19 AM 41.0 °F 32.5 °F 41.0 °F 100% 30.26 in 2.5 mi NNW 17.3 mph - N/A   Overcast
2:53 AM 39.9 °F 31.4 °F 39.9 °F 100% 30.28 in 2.5 mi NNW 16.1 mph - 0.00 in Rain Light Rain
3:00 AM 39.9 °F 32.1 °F 39.9 °F 100% 30.27 in 3.0 mi NNW 13.8 mph - 0.00 in Rain Light Rain
3:13 AM 39.0 °F 31.4 °F 37.9 °F 96% 30.28 in 2.5 mi NNW 12.7 mph 21.9 mph 0.00 in Rain Light Rain
3:15 AM 39.0 °F 31.0 °F 37.9 °F 96% 30.28 in 3.0 mi NW 13.8 mph - 0.00 in Rain Light Rain
3:53 AM 37.0 °F 29.8 °F 36.0 °F 96% 30.32 in 4.0 mi NW 10.4 mph - 0.01 in   Overcast
4:53 AM 35.1 °F 25.5 °F 34.0 °F 96% 30.36 in 3.0 mi NNW 15.0 mph - 0.00 in   Overcast
5:16 AM 34.0 °F 24.6 °F 34.0 °F 100% 30.35 in 2.5 mi NW 13.8 mph - N/A   Overcast
5:31 AM 34.0 °F 24.6 °F 33.1 °F 96% 30.35 in 2.0 mi NNW 13.8 mph - 0.00 in   Overcast
5:50 AM 33.8 °F 23.9 °F 33.8 °F 100% 30.36 in 3.0 mi NNW 15.0 mph - 0.00 in   Overcast
5:53 AM 34.0 °F 25.0 °F 33.1 °F 96% 30.38 in 3.0 mi NNW 12.7 mph - 0.00 in   Overcast
6:05 AM 34.0 °F 24.2 °F 33.1 °F 96% 30.37 in 3.0 mi NNW 15.0 mph - N/A   Overcast
6:53 AM 33.1 °F 23.4 °F 32.0 °F 96% 30.40 in 4.0 mi NNW 13.8 mph 23.0 mph N/A   Overcast
7:53 AM 32.0 °F 22.5 °F 32.0 °F 100% 30.43 in 2.5 mi NNW 12.7 mph - N/A   Overcast
8:05 AM 32.0 °F 21.2 °F 32.0 °F 100% 30.41 in 4.0 mi NNW 16.1 mph - N/A   Overcast
8:53 AM 32.0 °F 21.2 °F 30.9 °F 96% 30.45 in 4.0 mi NW 16.1 mph - N/A   Overcast
9:16 AM 32.0 °F 23.0 °F 32.0 °F 100% 30.45 in 2.5 mi NNW 11.5 mph - N/A   Overcast
9:36 AM 32.0 °F 21.6 °F 30.9 °F 96% 30.46 in 1.8 mi NNW 15.0 mph - N/A   Overcast
9:53 AM 32.0 °F 22.5 °F 30.9 °F 96% 30.48 in 2.0 mi NW 12.7 mph - N/A   Overcast
10:18 AM 32.0 °F 23.0 °F 30.9 °F 96% 30.47 in 3.0 mi NNW 11.5 mph - N/A   Overcast
10:49 AM 32.0 °F 21.6 °F 30.2 °F 93% 30.47 in 7.0 mi NNW 15.0 mph - N/A   Overcast
10:53 AM 32.0 °F 22.1 °F 30.9 °F 96% 30.49 in 7.0 mi NNW 13.8 mph - N/A   Overcast
11:00 AM 32.0 °F 23.0 °F 30.9 °F 96% 30.47 in 7.0 mi NNW 11.5 mph - N/A   Overcast
11:53 AM 32.0 °F 22.5 °F 30.0 °F 92% 30.45 in 8.0 mi NNW 12.7 mph - N/A   Overcast
12:53 PM 33.1 °F 23.9 °F 30.0 °F 89% 30.46 in 10.0 mi NNW 12.7 mph - N/A   Overcast
1:53 PM 33.1 °F 24.4 °F 30.0 °F 89% 30.45 in 9.0 mi North 11.5 mph - N/A   Overcast
2:53 PM 32.0 °F 22.1 °F 30.0 °F 92% 30.50 in 9.0 mi NW 13.8 mph - N/A   Overcast
3:53 PM 32.0 °F 21.2 °F 30.0 °F 92% 30.52 in 8.0 mi NNW 16.1 mph - N/A   Overcast
4:53 PM 32.0 °F 24.2 °F 28.9 °F 88% 30.54 in 9.0 mi NNW 9.2 mph - N/A   Overcast
5:45 PM 32.0 °F 23.6 °F 28.9 °F 88% 30.50 in 9.0 mi North 10.4 mph - N/A   Overcast
5:53 PM 32.0 °F 23.6 °F 28.9 °F 88% 30.53 in 10.0 mi North 10.4 mph - N/A   Overcast
6:53 PM 32.0 °F 24.2 °F 28.9 °F 88% 30.53 in 10.0 mi North 9.2 mph - N/A   Overcast
7:53 PM 32.0 °F 24.8 °F 28.9 °F 88% 30.54 in 10.0 mi North 8.1 mph - N/A   Overcast
8:53 PM 32.0 °F 24.2 °F 28.9 °F 88% 30.53 in 10.0 mi North 9.2 mph - N/A   Mostly Cloudy
9:05 PM 32.0 °F 23.0 °F 28.9 °F 88% 30.49 in 10.0 mi North 11.5 mph - N/A   Mostly Cloudy
9:34 PM 32.0 °F 23.0 °F 28.9 °F 88% 30.50 in 10.0 mi North 11.5 mph - N/A   Overcast
9:41 PM 32.0 °F 23.6 °F 28.9 °F 88% 30.49 in 10.0 mi North 10.4 mph - N/A   Overcast
9:53 PM 32.0 °F 23.6 °F 28.9 °F 88% 30.53 in 10.0 mi North 10.4 mph - N/A   Overcast
10:04 PM 32.0 °F 23.6 °F 28.0 °F 85% 30.49 in 10.0 mi North 10.4 mph - N/A   Overcast
10:32 PM 30.9 °F 23.5 °F 28.9 °F 92% 30.49 in 10.0 mi North 8.1 mph - N/A   Overcast
10:53 PM 32.0 °F 24.8 °F 28.9 °F 88% 30.53 in 10.0 mi North 8.1 mph - N/A   Overcast
11:53 PM 30.9 °F 22.8 °F 28.9 °F 92% 30.53 in 10.0 mi North 9.2 mph - N/A   Overcast